Weather History for Kirksville, MO

Change the Weather History Date:

Friday, January 10, 2014

  Actual Average Record
Temperature  
Mean Temperature 36 °F 26 °F  
Max Temperature 41 °F 35 °F 56 °F (2012)
Min Temperature 30 °F 17 °F -23 °F (1982)
Degree Days  
Heating Degree Days 29 39  
Month to date heating degree days 338 390  
Since 1 July heating degree days 2829 2733  
Cooling Degree Days 0 0  
Month to date cooling degree days 0 0  
Year to date cooling degree days 0 0  
Moisture  
Dew Point 34 °F    
Average Humidity 96    
Maximum Humidity 100    
Minimum Humidity 92    
Precipitation  
Precipitation 0.12 in 0.03 in 0.73 in (1949)
Month to date precipitation 0.67 0.31  
Year to date precipitation 0.67 0.31  
Sea Level Pressure  
Sea Level Pressure 29.74 in    
Wind  
Wind Speed 9 mph (South)    
Max Wind Speed 16 mph    
Max Gust Speed 20 mph    
Visibility 2 miles    
Events Fog , Rain    
T = Trace of Precipitation, MM = Missing Value Source: NWS Daily Summary

Daily Weather History Graph

Daily Weather History Graph

Search for Another Location

Airport:

Trip Planner

Search our weather history database for the weather conditions in past years. The results will help you decide how hot, cold, wet, or windy it might be!

Date:

Astronomy

Jan. 10, 2014 Rise Set
Actual Time 7:31 AM CST 5:03 PM CST
Civil Twilight 7:01 AM CST 5:33 PM CST
Nautical Twilight 6:28 AM CST 6:07 PM CST
Astronomical Twilight 5:55 AM CST 6:40 PM CST
Moon 1:08 PM CST (1/10) 2:39 AM CST (1/10)
Length of Visible Light 10h 32m
Length of Day
9h 31m
Waxing Gibbous, 75% of the Moon is Illuminated
Jan 10
Waxing Gibbous
Jan 15
Full
Jan 23
Last Quarter
Jan 30
New
Feb 6
First Quarter

Hourly Weather History & Observations

Time (CST) Temp. Windchill Dew Point Humidity Pressure Visibility Wind Dir Wind Speed Gust Speed Precip Events Conditions
12:36 AM 30.0 °F 22.4 °F 28.0 °F 92% 30.05 in 3.0 mi SSE 8.1 mph - N/A   Overcast
12:44 AM 30.0 °F 21.7 °F 28.0 °F 92% 30.04 in 3.0 mi SSE 9.2 mph - N/A   Overcast
12:55 AM 30.0 °F 22.4 °F 28.0 °F 92% 30.09 in 3.0 mi SSE 8.1 mph - N/A   Overcast
1:28 AM 30.0 °F 22.4 °F 28.9 °F 96% 30.02 in 3.0 mi SSE 8.1 mph - N/A   Overcast
1:55 AM 30.9 °F 23.5 °F 28.9 °F 92% 30.06 in 3.0 mi South 8.1 mph - N/A   Overcast
2:12 AM 30.9 °F 23.5 °F 28.9 °F 92% 30.01 in 2.5 mi SSE 8.1 mph - N/A   Overcast
2:26 AM 30.9 °F 23.5 °F 28.9 °F 92% 30.01 in 2.5 mi SSE 8.1 mph - N/A   Overcast
2:55 AM 30.9 °F 24.3 °F 30.0 °F 96% 30.03 in 2.5 mi SE 6.9 mph - N/A   Overcast
3:16 AM 30.9 °F 22.8 °F 30.0 °F 96% 29.98 in 1.0 mi SE 9.2 mph - N/A   Overcast
3:24 AM 30.9 °F 23.5 °F 30.0 °F 96% 29.97 in 0.5 mi SE 8.1 mph - N/A Fog Light Freezing Fog
3:55 AM 30.9 °F 22.8 °F 30.0 °F 96% 30.01 in 0.5 mi SSE 9.2 mph - N/A Fog Light Freezing Fog
4:41 AM 32.0 °F 22.5 °F 30.9 °F 96% 29.94 in 0.8 mi SSE 12.7 mph - N/A   Mist
4:48 AM 32.0 °F 23.0 °F 30.9 °F 96% 29.94 in 1.2 mi SSE 11.5 mph - N/A   Overcast
4:55 AM 32.0 °F 22.5 °F 30.9 °F 96% 29.97 in 1.8 mi SSE 12.7 mph - N/A   Overcast
5:20 AM 32.0 °F 22.5 °F 30.9 °F 96% 29.91 in 2.0 mi SE 12.7 mph - N/A   Overcast
5:55 AM 32.0 °F 22.5 °F 30.9 °F 96% 29.94 in 2.5 mi SE 12.7 mph - N/A   Overcast
6:47 AM 33.1 °F 24.4 °F 32.0 °F 96% 29.88 in 4.0 mi SSE 11.5 mph - N/A   Overcast
6:55 AM 33.1 °F 23.9 °F 32.0 °F 96% 29.92 in 5.0 mi SSE 12.7 mph - N/A   Overcast
7:55 AM 33.1 °F 24.4 °F 33.1 °F 100% 29.88 in 3.0 mi SE 11.5 mph - N/A   Overcast
8:15 AM 33.1 °F 23.4 °F 33.1 °F 100% 29.83 in 2.5 mi SE 13.8 mph - N/A   Overcast
8:32 AM 33.1 °F 23.0 °F 33.1 °F 100% 29.83 in 1.5 mi SE 15.0 mph - N/A   Overcast
8:55 AM 33.1 °F 23.0 °F 33.1 °F 100% 29.86 in 0.8 mi SE 15.0 mph - N/A   Overcast
9:03 AM 33.1 °F 23.4 °F 33.1 °F 100% 29.82 in 0.5 mi SE 13.8 mph - N/A Fog Fog
9:39 AM 34.0 °F 25.5 °F 34.0 °F 100% 29.80 in 0.8 mi SE 11.5 mph - 0.00 in   Overcast
9:46 AM 34.0 °F 25.0 °F 34.0 °F 100% 29.79 in 1.2 mi SE 12.7 mph - 0.00 in Rain Light Rain
9:55 AM 34.0 °F 25.5 °F 34.0 °F 100% 29.82 in 1.8 mi SE 11.5 mph - 0.01 in Rain Light Rain
10:03 AM 34.0 °F 24.6 °F 34.0 °F 100% 29.78 in 2.5 mi SE 13.8 mph - 0.00 in   Overcast
10:15 AM 34.0 °F 25.5 °F 34.0 °F 100% 29.77 in 1.2 mi SE 11.5 mph - 0.00 in   Overcast
10:55 AM 34.0 °F 26.6 °F 34.0 °F 100% 29.77 in 1.5 mi ESE 9.2 mph - 0.01 in   Overcast
11:38 AM 35.1 °F 26.4 °F 34.0 °F 96% 29.71 in 0.8 mi SSE 12.7 mph - 0.00 in   Overcast
11:46 AM 34.0 °F 25.5 °F 34.0 °F 100% 29.69 in 1.0 mi SE 11.5 mph - 0.01 in   Overcast
11:55 AM 34.0 °F 25.5 °F 34.0 °F 100% 29.72 in 1.0 mi SE 11.5 mph - 0.01 in   Overcast
12:43 PM 35.1 °F 27.4 °F 34.0 °F 96% 29.65 in 0.8 mi SSE 10.4 mph - N/A   Overcast
12:55 PM 35.1 °F 27.4 °F 34.0 °F 96% 29.67 in 1.0 mi SE 10.4 mph - 0.01 in   Overcast
1:04 PM 35.1 °F 27.9 °F 34.0 °F 96% 29.63 in 1.0 mi SE 9.2 mph - 0.01 in   Overcast
1:26 PM 35.1 °F 27.9 °F 34.0 °F 96% 29.60 in 1.0 mi SE 9.2 mph - 0.02 in   Overcast
1:45 PM 35.1 °F 27.9 °F 35.1 °F 100% 29.58 in 3.0 mi SE 9.2 mph - 0.03 in   Overcast
1:55 PM 35.1 °F 27.9 °F 35.1 °F 100% 29.60 in 5.0 mi SE 9.2 mph - 0.03 in   Overcast
2:25 PM 36.0 °F 29.0 °F 35.1 °F 97% 29.55 in 1.8 mi SE 9.2 mph - N/A   Overcast
2:32 PM 36.0 °F 29.0 °F 35.1 °F 97% 29.54 in 0.5 mi SSE 9.2 mph - N/A Fog Fog
2:55 PM 36.0 °F 29.6 °F 36.0 °F 100% 29.57 in 0.2 mi SSE 8.1 mph - N/A Fog Fog
3:55 PM 36.0 °F 32.1 °F 36.0 °F 100% 29.57 in 0.2 mi South 4.6 mph - N/A Fog Fog
4:55 PM 39.9 °F 36.7 °F 39.0 °F 97% 29.56 in 0.2 mi SSW 4.6 mph - 0.01 in Fog Fog
5:43 PM 37.9 °F 34.4 °F 37.9 °F 100% 29.53 in 1.0 mi West 4.6 mph - 0.02 in   Mist
5:55 PM 37.9 °F 34.4 °F 37.0 °F 97% 29.57 in 0.8 mi West 4.6 mph - 0.02 in Rain Light Rain
6:05 PM 39.0 °F - 37.9 °F 96% 29.54 in 0.8 mi Calm Calm - 0.01 in   Mist
6:09 PM 39.0 °F 36.8 °F 37.9 °F 96% 29.53 in 1.0 mi SW 3.5 mph - 0.01 in   Mist
6:28 PM 39.9 °F 35.8 °F 39.0 °F 97% 29.54 in 2.5 mi SW 5.8 mph - 0.01 in   Overcast
6:55 PM 39.9 °F 36.7 °F 39.0 °F 97% 29.56 in 1.5 mi SSW 4.6 mph - 0.02 in   Overcast
7:11 PM 39.0 °F 35.7 °F 39.0 °F 100% 29.54 in 0.8 mi WSW 4.6 mph - N/A   Mist
7:29 PM 39.0 °F 34.8 °F 37.9 °F 96% 29.54 in 1.5 mi West 5.8 mph - N/A   Overcast
7:35 PM 39.0 °F 34.8 °F 37.9 °F 96% 29.54 in 3.0 mi West 5.8 mph - N/A   Overcast
7:55 PM 39.0 °F 34.8 °F 37.9 °F 96% 29.57 in 2.0 mi WNW 5.8 mph - N/A   Overcast
8:03 PM 37.9 °F 32.1 °F 37.0 °F 97% 29.54 in 1.8 mi West 8.1 mph - N/A   Overcast
8:10 PM 37.9 °F 32.7 °F 37.0 °F 97% 29.54 in 3.0 mi West 6.9 mph - N/A   Overcast
8:52 PM 37.4 °F 32.8 °F 35.6 °F 93% 29.55 in 7.0 mi West 5.8 mph - N/A   Overcast
8:55 PM 37.0 °F 32.4 °F 36.0 °F 96% 29.58 in 6.0 mi West 5.8 mph - N/A   Overcast
9:03 PM 37.0 °F 31.6 °F 36.0 °F 96% 29.55 in 6.0 mi West 6.9 mph - N/A   Overcast
9:55 PM 37.0 °F 31.6 °F 36.0 °F 96% 29.58 in 7.0 mi West 6.9 mph - N/A   Overcast
10:25 PM 36.0 °F 27.1 °F 34.0 °F 93% 29.55 in 7.0 mi WNW 13.8 mph - N/A   Overcast
10:55 PM 36.0 °F 29.0 °F 34.0 °F 93% 29.58 in 6.0 mi West 9.2 mph - N/A   Overcast
11:46 PM 35.1 °F 28.6 °F 34.0 °F 96% 29.56 in 7.0 mi WNW 8.1 mph - N/A   Overcast
11:55 PM 35.1 °F 27.9 °F 33.1 °F 92% 29.59 in 7.0 mi WNW 9.2 mph - N/A   Overcast